EW3660 Weather Reports


time (UTC)temp
C
wind
direction
speed
KPH
gust
KPH
rain 1hr
cm
rain 24hr
cm
rain mn
cm
humidity
%
barometer
mb
20260509064509 11 229 9.7 12.9 0.00 0.00 0.00 99 1010.5
20260509064007 11 243 9.7 12.9 0.00 0.00 0.00 99 1010.6
20260509063502 11 241 11.3 12.9 0.00 0.00 0.00 99 1010.5
20260509063000 11 245 11.3 14.5 0.00 0.00 0.00 99 1010.7
20260509062457 11 216 12.9 12.9 0.00 0.00 0.00 99 1010.8
20260509061955 11 240 11.3 17.7 0.00 0.00 0.00 99 1010.6
20260509061451 11 226 12.9 14.5 0.00 0.00 0.00 99 1010.7
20260509060949 11 225 9.7 11.3 0.00 0.00 0.00 99 1010.8
20260509060446 11 238 11.3 12.9 0.00 0.00 0.00 99 1011.0
20260509055941 11 228 9.7 11.3 0.00 0.00 0.00 99 1011.1
20260509055437 11 234 11.3 12.9 0.00 0.00 0.00 99 1011.2
20260509054933 11 228 8.0 11.3 0.00 0.00 0.00 99 1011.2
20260509054430 11 221 11.3 12.9 0.00 0.00 0.00 99 1011.3
20260509053929 11 219 9.7 12.9 0.00 0.00 0.00 99 1011.0
20260509053426 11 223 8.0 12.9 0.00 0.00 0.00 99 1010.8
20260509052923 11 231 9.7 11.3 0.00 0.00 0.00 99 1010.8
20260509052421 11 226 6.4 9.7 0.00 0.00 0.00 99 1011.0
20260509051919 11 230 8.0 9.7 0.00 0.00 0.00 99 1011.3
20260509051416 11 228 6.4 8.0 0.00 0.00 0.00 99 1011.0
20260509050913 11 227 4.8 4.8 0.00 0.00 0.00 99 1011.1
20260509050410 11 238 4.8 4.8 0.00 0.00 0.00 99 1010.8
20260509045906 11 235 3.2 3.2 0.00 0.00 0.00 99 1011.0
20260509045403 11 225 4.8 4.8 0.00 0.00 0.00 99 1010.8
20260509044901 11 212 4.8 4.8 0.00 0.00 0.00 99 1011.0
20260509044358 11 218 8.0 9.7 0.00 0.00 0.00 99 1010.7
20260509043855 11 222 4.8 4.8 0.00 0.00 0.00 99 1011.1
20260509043350 11 238 4.8 4.8 0.00 0.00 0.00 99 1011.0
20260509042847 11 232 4.8 4.8 0.00 0.00 0.00 99 1011.1
20260509042343 11 240 4.8 4.8 0.00 0.00 0.00 99 1011.2
20260509041840 11 244 4.8 8.0 0.00 0.00 0.00 98 1010.8
20260509041337 11 238 4.8 4.8 0.00 0.00 0.00 98 1011.1
20260509040835 11 240 4.8 8.0 0.00 0.00 0.00 98 1011.0
20260509040332 11 246 4.8 8.0 0.00 0.00 0.00 98 1011.1
20260509035829 11 239 4.8 8.0 0.00 0.58 0.58 98 1011.1
20260509035327 11 249 6.4 8.0 0.00 0.58 0.58 98 1011.4
20260509034822 11 238 6.4 8.0 0.00 0.58 0.58 98 1011.1
20260509034321 11 242 6.4 8.0 0.00 0.58 0.58 98 1011.5
20260509033817 11 213 8.0 9.7 0.00 0.58 0.58 98 1011.2
20260509033314 11 261 4.8 8.0 0.00 0.58 0.58 98 1011.6
20260509032811 11 266 6.4 8.0 0.00 0.58 0.58 97 1011.6
20260509032308 11 256 4.8 4.8 0.00 0.58 0.58 97 1011.5
20260509031806 11 249 3.2 3.2 0.00 0.58 0.58 97 1011.1
20260509031303 11 249 0.0 0.0 0.00 0.58 0.58 97 1011.1
20260509030800 12 246 1.6 3.2 0.00 0.58 0.58 97 1011.3
20260509030259 12 253 3.2 4.8 0.00 0.58 0.58 97 1011.2
20260509025755 12 254 6.4 8.0 0.00 0.58 0.58 97 1011.2
20260509025250 12 251 6.4 9.7 0.00 0.58 0.58 96 1011.3
20260509024746 12 229 9.7 12.9 0.00 0.58 0.58 96 1011.2
20260509024242 12 235 8.0 9.7 0.00 0.58 0.58 96 1011.5
20260509023740 12 238 8.0 9.7 0.00 0.58 0.58 96 1011.2
20260509023237 12 239 9.7 11.3 0.00 0.58 0.58 96 1011.2
20260509022733 12 255 8.0 11.3 0.00 0.58 0.58 96 1011.4
20260509022231 12 258 11.3 12.9 0.00 0.58 0.58 96 1011.1
20260509021727 12 249 8.0 11.3 0.00 0.58 0.58 96 1011.3
20260509021225 12 259 8.0 9.7 0.00 0.58 0.58 96 1011.4
20260509020723 12 239 9.7 11.3 0.00 0.58 0.58 96 1011.3
20260509020219 12 223 8.0 11.3 0.00 0.58 0.58 96 1011.3
20260509015718 12 239 9.7 9.7 0.00 0.58 0.58 96 1011.2
20260509015216 12 230 9.7 11.3 0.00 0.58 0.58 96 1011.3
20260509014712 12 258 8.0 9.7 0.00 0.58 0.58 96 1011.0
20260509014209 12 237 8.0 11.3 0.00 0.58 0.58 96 1011.2
20260509013705 12 247 8.0 9.7 0.00 0.58 0.58 96 1011.2
20260509013201 12 231 9.7 11.3 0.00 0.58 0.58 96 1011.0
20260509012658 12 247 9.7 9.7 0.00 0.58 0.58 96 1011.5
20260509012154 12 236 11.3 12.9 0.00 0.58 0.58 96 1011.2
20260509011652 12 254 8.0 14.5 0.00 0.58 0.58 96 1011.5
20260509011149 12 270 9.7 12.9 0.00 0.58 0.58 96 1011.1
20260509010647 12 228 8.0 11.3 0.00 0.58 0.58 96 1011.4
20260509010143 12 219 8.0 9.7 0.00 0.58 0.58 96 1011.4
20260509005641 12 230 6.4 8.0 0.00 0.58 0.58 96 1011.3
20260509005137 12 220 8.0 9.7 0.00 0.58 0.58 96 1011.3
20260509004633 12 229 8.0 9.7 0.00 0.58 0.58 95 1011.4
20260509004130 12 234 6.4 9.7 0.00 0.58 0.58 95 1011.4
20260509003629 12 235 6.4 9.7 0.00 0.58 0.58 95 1011.3
20260509003126 12 221 6.4 8.0 0.00 0.58 0.58 94 1011.3
20260509002623 12 241 8.0 9.7 0.00 0.58 0.58 94 1011.4
20260509002120 12 229 8.0 11.3 0.00 0.58 0.58 94 1011.3
20260509001618 12 243 6.4 9.7 0.00 0.58 0.58 94 1011.2
20260509001113 12 239 8.0 11.3 0.00 0.58 0.58 94 1011.7
20260509000612 12 223 8.0 11.3 0.00 0.58 0.58 93 1011.4
20260509000108 12 235 8.0 12.9 0.00 0.58 0.58 93 1011.2
20260508235606 12 228 9.7 14.5 0.00 0.58 0.58 93 1011.4
20260508235102 12 232 9.7 12.9 0.00 0.58 0.58 92 1011.3
20260508234559 12 233 9.7 16.1 0.00 0.58 0.58 92 1011.3
20260508234056 12 242 8.0 9.7 0.00 0.58 0.58 92 1011.4
20260508233555 12 218 9.7 12.9 0.00 0.58 0.58 92 1011.4
20260508233052 12 242 12.9 14.5 0.00 0.58 0.58 91 1011.4
20260508232549 12 263 8.0 9.7 0.00 0.58 0.58 92 1011.5
20260508232046 12 241 8.0 11.3 0.00 0.58 0.58 91 1011.4
20260508231544 12 244 9.7 11.3 0.00 0.58 0.58 91 1011.5
20260508231041 12 237 9.7 11.3 0.00 0.58 0.58 92 1011.5
20260508230537 12 228 8.0 11.3 0.00 0.58 0.58 92 1011.6
20260508230034 12 257 11.3 12.9 0.00 0.58 0.58 93 1011.5
20260508225531 12 233 11.3 14.5 0.00 0.58 0.58 94 1011.7
20260508225028 12 220 9.7 11.3 0.00 0.58 0.58 94 1011.7
20260508224526 12 231 9.7 12.9 0.00 0.58 0.58 94 1011.6
20260508224023 12 243 9.7 12.9 0.00 0.58 0.58 94 1011.7
20260508223520 13 245 8.0 11.3 0.00 0.58 0.58 94 1011.5
20260508223018 13 252 8.0 12.9 0.00 0.58 0.58 94 1011.5
20260508222515 13 232 12.9 14.5 0.00 0.58 0.58 94 1011.5
20260508222012 13 225 11.3 14.5 0.00 0.58 0.58 94 1011.7
20260508221508 13 217 9.7 12.9 0.00 0.58 0.58 95 1011.7
20260508221004 13 230 8.0 11.3 0.00 0.58 0.58 95 1011.7
20260508220500 13 244 8.0 11.3 0.00 0.58 0.58 94 1011.7
20260508215956 13 247 8.0 9.7 0.00 0.58 0.58 94 1011.9
20260508215454 13 236 8.0 9.7 0.00 0.58 0.58 95 1011.8
20260508214950 12 252 11.3 12.9 0.00 0.58 0.58 95 1011.5
20260508214448 13 221 9.7 12.9 0.00 0.58 0.58 96 1011.6
20260508213944 12 243 12.9 14.5 0.00 0.58 0.58 97 1011.5
20260508213442 12 228 9.7 11.3 0.00 0.58 0.58 97 1011.6
20260508212937 12 228 9.7 12.9 0.00 0.58 0.58 97 1011.4
20260508212434 12 227 8.0 9.7 0.00 0.58 0.58 98 1011.6
20260508211930 12 227 9.7 11.3 0.00 0.58 0.58 97 1011.4
20260508211425 12 229 6.4 8.0 0.00 0.58 0.58 98 1011.4
20260508210923 12 234 6.4 11.3 0.00 0.58 0.58 97 1011.7
20260508210419 12 227 8.0 12.9 0.00 0.58 0.58 97 1011.7
20260508205915 12 247 8.0 11.3 0.00 0.58 0.58 97 1012.0
20260508205413 12 232 11.3 14.5 0.00 0.58 0.58 96 1012.1
20260508204909 12 239 14.5 16.1 0.18 0.58 0.58 96 1012.3
20260508204407 12 240 12.9 14.5 0.18 0.58 0.58 96 1012.2
20260508203902 12 242 14.5 16.1 0.18 0.56 0.56 95 1012.4
20260508203358 12 230 16.1 24.1 0.18 0.56 0.56 95 1012.2
20260508202854 12 236 14.5 20.9 0.00 0.51 0.51 94 1012.3
20260508202351 12 241 14.5 22.5 0.00 0.51 0.51 95 1012.2
20260508201849 12 246 12.9 16.1 0.00 0.51 0.51 95 1012.5
20260508201345 12 236 16.1 16.1 0.00 0.51 0.51 94 1012.6
20260508200841 12 248 14.5 14.5 0.00 0.51 0.51 94 1012.8
20260508200338 12 255 9.7 16.1 0.23 0.51 0.51 95 1012.7
20260508195834 12 244 11.3 12.9 0.36 0.48 0.48 95 1012.8
20260508195331 12 220 8.0 11.3 0.36 0.46 0.46 95 1012.8
20260508194827 12 244 4.8 4.8 0.36 0.43 0.43 95 1012.7
20260508194325 12 268 4.8 8.0 0.43 0.38 0.38 95 1013.0
20260508193821 13 269 1.6 1.6 0.61 0.36 0.36 94 1013.1
20260508193318 13 263 1.6 1.6 0.53 0.33 0.33 94 1013.0
20260508192814 13 263 0.0 1.6 0.00 0.23 0.23 93 1012.9
20260508192312 13 260 1.6 3.2 0.23 0.23 0.23 93 1013.0
20260508191809 13 271 1.6 3.2 0.23 0.23 0.23 92 1013.0
20260508191306 13 339 4.8 4.8 0.00 0.18 0.18 91 1013.2
20260508190803 13 264 3.2 8.0 0.00 0.18 0.18 88 1013.3
20260508190259 14 291 3.2 3.2 0.00 0.18 0.18 83 1013.0
20260508185756 14 266 3.2 9.7 0.00 0.18 0.18 82 1013.2
20260508185253 14 280 4.8 11.3 0.00 0.18 0.18 83 1013.1
20260508184750 14 279 4.8 8.0 0.18 0.18 0.18 83 1012.9
20260508184248 14 254 8.0 11.3 0.18 0.18 0.18 84 1013.1
20260508183744 14 264 12.9 17.7 0.00 0.15 0.15 83 1013.1
20260508183241 15 263 16.1 17.7 0.00 0.15 0.15 82 1013.2
20260508182737 15 240 14.5 24.1 0.00 0.15 0.15 80 1013.2
20260508182234 15 267 12.9 14.5 0.00 0.15 0.15 78 1013.0
20260508181729 15 272 9.7 12.9 0.00 0.15 0.15 77 1012.9
20260508181227 15 267 6.4 11.3 0.00 0.15 0.15 75 1013.0
20260508180723 16 271 8.0 16.1 0.00 0.15 0.15 76 1013.0
20260508180220 16 259 12.9 20.9 0.00 0.15 0.15 71 1013.1
20260508175716 16 248 14.5 20.9 0.00 0.15 0.15 69 1013.3
20260508175213 16 250 17.7 25.7 0.00 0.15 0.15 69 1013.2
20260508174712 17 265 14.5 16.1 0.00 0.15 0.15 69 1013.2
20260508174208 16 256 11.3 22.5 0.00 0.15 0.15 70 1013.2
20260508173704 17 280 16.1 20.9 0.00 0.15 0.15 66 1013.2
20260508173200 16 236 24.1 29.0 0.00 0.15 0.15 67 1013.3
20260508172658 17 263 19.3 22.5 0.00 0.15 0.15 67 1013.5
20260508172154 16 246 19.3 27.4 0.00 0.15 0.15 67 1013.5
20260508171651 17 249 17.7 22.5 0.00 0.15 0.15 68 1013.7
20260508171147 17 282 14.5 22.5 0.00 0.15 0.15 70 1013.8
20260508170644 16 250 11.3 14.5 0.00 0.15 0.15 70 1013.6
20260508170142 16 237 14.5 17.7 0.00 0.15 0.15 71 1013.5
20260508165639 16 252 6.4 11.3 0.00 0.15 0.15 70 1013.7
20260508165136 16 226 12.9 14.5 0.00 0.15 0.15 72 1013.9
20260508164632 15 237 11.3 14.5 0.00 0.15 0.15 73 1013.8
20260508164129 15 220 11.3 14.5 0.00 0.15 0.15 73 1014.0
20260508163627 15 218 9.7 11.3 0.00 0.15 0.15 74 1014.1
20260508163124 14 213 8.0 11.3 0.00 0.15 0.15 73 1014.4
20260508162620 14 236 8.0 11.3 0.00 0.15 0.15 72 1014.4
20260508162118 14 230 6.4 8.0 0.00 0.15 0.15 75 1014.6
20260508161614 14 235 8.0 14.5 0.00 0.15 0.15 74 1014.6
20260508161112 13 217 6.4 11.3 0.00 0.15 0.15 75 1014.8
20260508160610 13 226 11.3 12.9 0.00 0.15 0.15 73 1014.9
20260508160107 13 256 9.7 12.9 0.00 0.15 0.15 73 1014.7
20260508155604 13 238 8.0 11.3 0.00 0.15 0.15 74 1014.6
20260508155101 13 261 12.9 14.5 0.00 0.15 0.15 74 1015.0
20260508154557 14 244 8.0 12.9 0.00 0.15 0.15 72 1014.8
20260508154054 14 272 12.9 16.1 0.00 0.15 0.15 72 1014.8
20260508153551 15 243 14.5 17.7 0.00 0.15 0.15 73 1015.0
20260508153047 14 263 14.5 20.9 0.00 0.15 0.15 72 1015.0
20260508152545 14 239 12.9 16.1 0.00 0.15 0.15 72 1014.9
20260508152040 15 221 14.5 20.9 0.00 0.15 0.15 72 1014.9
20260508151537 14 226 11.3 12.9 0.00 0.15 0.15 73 1014.9
20260508151034 13 243 11.3 14.5 0.00 0.15 0.15 73 1014.9
20260508150531 14 225 11.3 14.5 0.00 0.15 0.15 76 1015.0
20260508150027 13 244 9.7 12.9 0.00 0.15 0.15 75 1014.9
20260508145524 13 255 9.7 12.9 0.00 0.15 0.15 74 1015.2
20260508145020 13 222 11.3 12.9 0.00 0.15 0.15 75 1015.5
20260508144518 12 243 12.9 16.1 0.00 0.15 0.15 74 1015.4
20260508144015 12 278 11.3 14.5 0.00 0.15 0.15 76 1015.5
20260508143513 12 235 11.3 16.1 0.00 0.15 0.15 77 1015.1
20260508143009 12 269 14.5 16.1 0.00 0.15 0.15 76 1015.2
20260508142506 12 266 16.1 17.7 0.00 0.15 0.15 76 1015.4
20260508142003 12 246 16.1 17.7 0.00 0.15 0.15 76 1015.4
20260508141459 12 238 14.5 17.7 0.00 0.15 0.15 76 1015.2
20260508140957 11 257 9.7 14.5 0.00 0.15 0.15 76 1015.6
20260508140454 12 247 14.5 17.7 0.00 0.15 0.15 76 1015.7
20260508135949 12 218 11.3 12.9 0.00 0.15 0.15 79 1015.6
20260508135446 11 241 9.7 16.1 0.00 0.15 0.15 77 1015.5
20260508134942 11 264 11.3 17.7 0.00 0.15 0.15 78 1015.8
20260508134439 11 251 9.7 12.9 0.00 0.15 0.15 78 1015.7
20260508133936 11 249 11.3 14.5 0.00 0.15 0.15 78 1016.0
20260508133434 11 240 11.3 16.1 0.00 0.15 0.15 78 1015.7
20260508132930 10 245 11.3 12.9 0.00 0.15 0.15 79 1016.0
20260508132428 10 242 9.7 17.7 0.00 0.15 0.15 78 1015.9
20260508131925 10 238 12.9 16.1 0.00 0.15 0.15 79 1015.7
20260508131420 10 236 12.9 16.1 0.00 0.15 0.15 79 1015.7
20260508130917 10 239 14.5 16.1 0.00 0.15 0.15 79 1015.6
20260508130414 10 223 11.3 14.5 0.00 0.15 0.15 79 1015.4
20260508125910 10 252 12.9 16.1 0.00 0.15 0.15 80 1015.7
20260508125406 10 240 11.3 16.1 0.00 0.15 0.15 80 1015.5
20260508124904 10 248 11.3 16.1 0.00 0.15 0.15 80 1015.6
20260508124401 10 221 12.9 14.5 0.00 0.15 0.15 80 1015.7
20260508123859 10 248 11.3 12.9 0.00 0.15 0.15 80 1015.9
20260508123357 10 244 9.7 12.9 0.00 0.15 0.15 80 1015.8
20260508122853 10 240 9.7 11.3 0.00 0.15 0.15 80 1015.7
20260508122350 10 231 12.9 14.5 0.00 0.15 0.15 81 1015.7
20260508121847 10 237 9.7 11.3 0.00 0.15 0.15 81 1015.7
20260508121346 10 225 12.9 12.9 0.00 0.15 0.15 81 1015.8
20260508120843 10 230 9.7 12.9 0.00 0.15 0.15 80 1015.5
20260508120341 10 250 11.3 12.9 0.00 0.15 0.15 80 1015.6
20260508115838 10 237 11.3 12.9 0.00 0.15 0.15 81 1015.4
20260508115336 10 220 8.0 11.3 0.00 0.15 0.15 80 1015.6
20260508114832 10 237 8.0 16.1 0.00 0.15 0.15 80 1015.5
20260508114329 10 239 8.0 14.5 0.00 0.15 0.15 80 1015.7
20260508113826 10 245 9.7 12.9 0.00 0.15 0.15 80 1015.7
20260508113324 10 245 11.3 12.9 0.00 0.15 0.15 80 1015.6
20260508112820 10 221 14.5 16.1 0.00 0.15 0.15 80 1015.1
20260508112317 10 237 14.5 17.7 0.00 0.15 0.15 80 1015.1
20260508111814 10 251 11.3 16.1 0.00 0.15 0.15 82 1015.5
20260508111311 10 238 11.3 12.9 0.00 0.15 0.15 82 1015.5
20260508110808 10 240 14.5 14.5 0.00 0.15 0.15 83 1015.1
20260508110306 10 249 9.7 12.9 0.00 0.15 0.15 83 1015.4
20260508105805 10 231 9.7 11.3 0.00 0.15 0.15 83 1015.2
20260508105305 9 245 9.7 12.9 0.00 0.15 0.15 85 1015.4
20260508104759 9 250 11.3 12.9 0.00 0.15 0.15 86 1015.5
20260508104256 8 249 6.4 9.7 0.00 0.15 0.15 87 1015.5
20260508103753 8 243 4.8 8.0 0.00 0.15 0.15 88 1015.1
20260508103250 8 250 4.8 8.0 0.00 0.15 0.15 89 1015.5
20260508102747 8 258 4.8 4.8 0.00 0.15 0.15 89 1015.6
20260508102246 8 250 4.8 8.0 0.00 0.15 0.15 89 1015.5
20260508101743 8 250 6.4 8.0 0.00 0.15 0.15 89 1015.6
20260508101240 8 252 8.0 9.7 0.00 0.15 0.15 88 1015.6
20260508100738 8 247 8.0 9.7 0.18 0.15 0.15 88 1015.7
20260508100235 8 253 8.0 11.3 0.18 0.15 0.15 87 1015.6
20260508095731 8 259 8.0 11.3 0.00 0.13 0.13 87 1015.8
20260508095229 8 255 11.3 12.9 0.00 0.13 0.13 86 1015.8
20260508094725 9 251 11.3 12.9 0.00 0.13 0.13 85 1015.6
20260508094222 8 245 12.9 14.5 0.00 0.13 0.13 85 1015.5
20260508093720 8 238 9.7 11.3 0.00 0.13 0.13 86 1015.5
20260508093218 8 214 8.0 11.3 0.00 0.13 0.13 86 1015.4
20260508092714 8 242 9.7 11.3 0.00 0.13 0.13 88 1015.5
20260508092212 8 265 6.4 8.0 0.00 0.13 0.13 89 1015.8
20260508091710 8 252 8.0 9.7 0.18 0.13 0.13 89 1015.9
20260508091207 8 261 8.0 11.3 0.18 0.13 0.13 89 1016.0
20260508090704 8 258 9.7 12.9 0.00 0.10 0.10 89 1016.0
20260508090202 8 259 11.3 12.9 0.00 0.10 0.10 88 1016.1
20260508085657 8 263 14.5 20.9 0.18 0.10 0.10 88 1016.1
20260508085155 8 242 12.9 14.5 0.18 0.10 0.10 88 1016.0
20260508084651 9 255 8.0 8.0 0.23 0.08 0.08 87 1016.1
20260508084148 9 267 3.2 3.2 0.43 0.08 0.08 86 1016.4
20260508083646 10 278 6.4 9.7 0.18 0.03 0.03 83 1016.3
20260508083144 10 271 8.0 11.3 0.00 0.00 0.00 81 1015.9
20260508082638 10 249 9.7 11.3 0.00 0.00 0.00 79 1015.4
20260508082136 10 248 11.3 17.7 0.00 0.00 0.00 79 1015.4
20260508081633 10 258 11.3 14.5 0.00 0.00 0.00 79 1015.4
20260508081129 10 252 11.3 14.5 0.00 0.00 0.00 79 1015.2
20260508080627 10 255 14.5 16.1 0.00 0.00 0.00 80 1015.2
20260508080125 10 243 17.7 20.9 0.00 0.00 0.00 79 1015.0
20260508075621 10 243 14.5 20.9 0.00 0.00 0.00 78 1015.0
20260508075118 10 257 14.5 16.1 0.00 0.00 0.00 78 1015.1
20260508074616 11 267 14.5 20.9 0.00 0.00 0.00 76 1015.2
20260508074112 10 259 17.7 20.9 0.00 0.00 0.00 78 1015.1
20260508073610 10 276 14.5 20.9 0.00 0.00 0.00 79 1015.4
20260508073107 10 257 16.1 22.5 0.00 0.00 0.00 80 1015.2
20260508071523 10 265 20.9 24.1 0.00 0.00 0.00 76 1015.6
20260508071021 10 265 20.9 24.1 0.00 0.00 0.00 76 1015.6
20260508070518 10 245 14.5 20.9 0.00 0.00 0.00 75 1015.9
20260508070016 10 249 11.3 17.7 0.00 0.00 0.00 76 1015.6
20260508065514 10 263 11.3 16.1 0.00 0.00 0.00 76 1015.9
20260508065012 10 263 11.3 20.9 0.00 0.00 0.00 77 1015.8